Time,TemperatureF,DewpointF,PressureIn,WindDirection,WindDirectionDegrees,WindSpeedMPH,WindSpeedGustMPH,Humidity,HourlyPrecipIn,Conditions,Clouds,dailyrainin,SoftwareType,DateUTC
2013-05-16 00:02:00,54.0,51.0,-100.00,North,1,0.0,-999.0,90,-99.99,,,-99.99,,2013-05-16 04:02:00,
2013-05-16 00:12:00,54.0,51.0,-100.00,North,1,0.0,-999.0,90,-99.99,,,-99.99,,2013-05-16 04:12:00,
2013-05-16 00:23:00,54.0,51.0,-100.00,North,1,0.0,-999.0,90,-99.99,,,-99.99,,2013-05-16 04:23:00,
2013-05-16 00:33:00,54.0,51.0,-100.00,North,1,0.0,-999.0,90,-99.99,,,-99.99,,2013-05-16 04:33:00,
2013-05-16 00:42:00,54.0,51.0,-100.00,North,1,0.0,-999.0,90,-99.99,,,-99.99,,2013-05-16 04:42:00,
2013-05-16 01:03:00,54.0,51.0,-100.00,North,-999,0.0,-999.0,89,0.00,,,0.11,,2013-05-16 05:03:00,
2013-05-16 01:12:00,54.0,51.0,-100.00,North,-999,0.0,-999.0,89,0.00,,,0.11,,2013-05-16 05:12:00,
2013-05-16 01:22:00,54.0,51.0,-100.00,North,-999,0.0,-999.0,89,0.00,,,0.11,,2013-05-16 05:22:00,
2013-05-16 01:32:00,54.0,51.0,-100.00,North,-999,0.0,-999.0,89,0.00,,,0.11,,2013-05-16 05:32:00,
2013-05-16 01:42:00,54.0,51.0,-100.00,North,-999,0.0,-999.0,89,0.00,,,0.11,,2013-05-16 05:42:00,
2013-05-16 02:02:00,53.0,50.0,-100.00,North,-999,-999.0,-999.0,91,0.00,,,0.11,,2013-05-16 06:02:00,
2013-05-16 02:12:00,53.0,50.0,-100.00,North,-999,-999.0,-999.0,91,0.00,,,0.11,,2013-05-16 06:12:00,
2013-05-16 02:23:00,53.0,50.0,-100.00,North,-999,-999.0,-999.0,91,0.00,,,0.11,,2013-05-16 06:23:00,
2013-05-16 02:33:00,53.0,50.0,-100.00,North,-999,-999.0,-999.0,91,0.00,,,0.11,,2013-05-16 06:33:00,
2013-05-16 02:43:00,53.0,50.0,-100.00,North,-999,-999.0,-999.0,91,0.00,,,0.11,,2013-05-16 06:43:00,
2013-05-16 03:02:00,51.0,49.0,-100.00,North,-999,0.0,-999.0,93,0.00,,,0.11,,2013-05-16 07:02:00,
2013-05-16 03:12:00,51.0,49.0,-100.00,North,-999,0.0,-999.0,93,0.00,,,0.11,,2013-05-16 07:12:00,
2013-05-16 03:24:00,51.0,49.0,-100.00,North,-999,0.0,-999.0,93,0.00,,,0.11,,2013-05-16 07:24:00,
2013-05-16 03:34:00,51.0,49.0,-100.00,North,-999,0.0,-999.0,93,0.00,,,0.11,,2013-05-16 07:34:00,
2013-05-16 03:44:00,51.0,49.0,-100.00,North,-999,0.0,-999.0,93,0.00,,,0.11,,2013-05-16 07:44:00,
2013-05-16 03:45:00,51.0,49.0,-100.00,North,-999,-999.0,-999.0,94,0.00,,,-99.99,,2013-05-16 07:45:00,
2013-05-16 04:03:00,51.0,49.0,-100.00,North,-999,-999.0,-999.0,94,0.00,,,-99.99,,2013-05-16 08:03:00,
2013-05-16 04:13:00,51.0,49.0,-100.00,North,-999,-999.0,-999.0,94,0.00,,,-99.99,,2013-05-16 08:13:00,
2013-05-16 04:24:00,51.0,49.0,-100.00,North,-999,-999.0,-999.0,94,0.00,,,-99.99,,2013-05-16 08:24:00,
2013-05-16 04:35:00,51.0,49.0,-100.00,North,-999,-999.0,-999.0,94,0.00,,,-99.99,,2013-05-16 08:35:00,
2013-05-16 04:45:00,51.0,49.0,-100.00,North,-999,0.0,-999.0,92,0.00,,,0.11,,2013-05-16 08:45:00,
2013-05-16 05:04:00,51.0,49.0,-100.00,North,-999,0.0,-999.0,92,0.00,,,0.11,,2013-05-16 09:04:00,
2013-05-16 05:14:00,51.0,49.0,-100.00,North,-999,0.0,-999.0,92,0.00,,,0.11,,2013-05-16 09:14:00,
2013-05-16 05:24:00,51.0,49.0,-100.00,North,-999,0.0,-999.0,92,0.00,,,0.11,,2013-05-16 09:24:00,
2013-05-16 05:35:00,51.0,49.0,-100.00,North,-999,0.0,-999.0,92,0.00,,,0.11,,2013-05-16 09:35:00,
2013-05-16 05:45:00,51.0,49.0,-100.00,North,10,0.0,-999.0,92,0.00,,,0.11,,2013-05-16 09:45:00,
2013-05-16 06:05:00,51.0,49.0,-100.00,North,10,0.0,-999.0,92,0.00,,,0.11,,2013-05-16 10:05:00,
2013-05-16 06:15:00,51.0,49.0,-100.00,North,10,0.0,-999.0,92,0.00,,,0.11,,2013-05-16 10:15:00,
2013-05-16 06:24:00,51.0,49.0,-100.00,North,10,0.0,-999.0,92,0.00,,,0.11,,2013-05-16 10:24:00,
2013-05-16 06:36:00,51.0,49.0,-100.00,North,10,0.0,-999.0,92,0.00,,,0.11,,2013-05-16 10:36:00,
2013-05-16 06:45:00,51.0,48.0,-100.00,NNE,15,0.0,-999.0,91,0.00,,,0.11,,2013-05-16 10:45:00,
2013-05-16 07:05:00,51.0,48.0,-100.00,NNE,15,0.0,-999.0,91,0.00,,,0.11,,2013-05-16 11:05:00,
2013-05-16 07:15:00,51.0,48.0,-100.00,NNE,15,0.0,-999.0,91,0.00,,,0.11,,2013-05-16 11:15:00,
2013-05-16 07:25:00,51.0,48.0,-100.00,NNE,15,0.0,-999.0,91,0.00,,,0.11,,2013-05-16 11:25:00,
2013-05-16 07:35:00,51.0,48.0,-100.00,NNE,15,0.0,-999.0,91,0.00,,,0.11,,2013-05-16 11:35:00,
2013-05-16 07:45:00,53.0,48.0,-100.00,North,-999,0.0,-999.0,83,0.00,,,0.11,,2013-05-16 11:45:00,
2013-05-16 08:06:00,53.0,48.0,-100.00,North,-999,0.0,-999.0,83,0.00,,,0.11,,2013-05-16 12:06:00,
2013-05-16 08:13:00,53.0,48.0,-100.00,North,-999,0.0,-999.0,83,0.00,,,0.11,,2013-05-16 12:13:00,
2013-05-16 08:23:00,53.0,48.0,-100.00,North,-999,0.0,-999.0,83,0.00,,,0.11,,2013-05-16 12:23:00,
2013-05-16 08:35:00,53.0,48.0,-100.00,North,-999,0.0,-999.0,83,0.00,,,0.11,,2013-05-16 12:35:00,
2013-05-16 09:04:00,57.0,47.0,-100.00,North,1,0.0,-999.0,69,0.00,,,-99.99,,2013-05-16 13:04:00,
2013-05-16 09:12:00,57.0,47.0,-100.00,North,1,0.0,-999.0,69,0.00,,,-99.99,,2013-05-16 13:12:00,
2013-05-16 09:27:00,57.0,47.0,-100.00,North,1,0.0,-999.0,69,0.00,,,-99.99,,2013-05-16 13:27:00,
2013-05-16 09:35:00,57.0,47.0,-100.00,North,1,0.0,-999.0,69,0.00,,,-99.99,,2013-05-16 13:35:00,
2013-05-16 09:43:00,57.0,47.0,-100.00,North,1,0.0,-999.0,69,0.00,,,-99.99,,2013-05-16 13:43:00,
2013-05-16 09:45:00,61.0,45.0,-100.00,North,-999,-999.0,-999.0,56,0.00,,,0.11,,2013-05-16 13:45:00,
2013-05-16 10:05:00,61.0,45.0,-100.00,North,-999,-999.0,-999.0,56,0.00,,,0.11,,2013-05-16 14:05:00,
2013-05-16 10:16:00,61.0,45.0,-100.00,North,-999,-999.0,-999.0,56,0.00,,,0.11,,2013-05-16 14:16:00,
2013-05-16 10:23:00,61.0,45.0,-100.00,North,-999,-999.0,-999.0,56,0.00,,,0.11,,2013-05-16 14:23:00,
2013-05-16 10:37:00,61.0,45.0,-100.00,North,-999,-999.0,-999.0,56,0.00,,,0.11,,2013-05-16 14:37:00,
2013-05-16 11:45:00,70.0,36.0,-100.00,North,-999,0.0,-999.0,29,-99.99,,,0.12,,2013-05-16 15:45:00,
2013-05-16 12:09:00,70.0,36.0,-100.00,North,-999,0.0,-999.0,29,-99.99,,,0.12,,2013-05-16 16:09:00,
2013-05-16 12:20:00,70.0,-99.9,-100.00,North,-999,0.0,-999.0,29,-99.99,,,0.12,,2013-05-16 16:20:00,
2013-05-16 12:31:00,70.0,-99.9,-100.00,North,-999,0.0,-999.0,29,-99.99,,,0.12,,2013-05-16 16:31:00,
2013-05-16 12:40:00,70.0,-99.9,-100.00,North,-999,0.0,-999.0,29,-99.99,,,0.12,,2013-05-16 16:40:00,
2013-05-16 14:10:00,74.0,32.0,-100.00,North,-999,-999.0,-999.0,21,-99.99,,,0.12,,2013-05-16 18:10:00,
2013-05-16 14:20:00,74.0,32.0,-100.00,North,-999,-999.0,-999.0,21,-99.99,,,0.12,,2013-05-16 18:20:00,
2013-05-16 15:11:00,77.0,-99.9,-100.00,North,-999,-999.0,-999.0,20,0.00,,,0.12,,2013-05-16 19:11:00,
2013-05-16 15:20:00,77.0,33.0,-100.00,North,-999,-999.0,-999.0,20,0.00,,,0.12,,2013-05-16 19:20:00,
2013-05-16 15:30:00,77.0,33.0,-100.00,North,-999,-999.0,-999.0,20,0.00,,,0.12,,2013-05-16 19:30:00,
2013-05-16 15:40:00,77.0,-99.9,-100.00,North,-999,-999.0,-999.0,20,0.00,,,0.12,,2013-05-16 19:40:00,
2013-05-16 15:45:00,79.0,-99.9,-100.00,North,-999,0.0,-999.0,16,0.00,,,0.12,,2013-05-16 19:45:00,
2013-05-16 16:10:00,-999.0,-99.9,-100.00,North,-999,0.0,-999.0,16,0.00,,,0.12,,2013-05-16 20:10:00,
2013-05-16 16:20:00,79.0,-99.9,-100.00,North,-999,0.0,-999.0,16,0.00,,,0.12,,2013-05-16 20:20:00,
2013-05-16 16:31:00,79.0,-99.9,-100.00,North,-999,0.0,-999.0,16,0.00,,,0.12,,2013-05-16 20:31:00,
2013-05-16 16:41:00,-999.0,-99.9,-100.00,North,-999,0.0,-999.0,16,0.00,,,0.12,,2013-05-16 20:41:00,
2013-05-16 16:45:00,79.0,-99.9,-100.00,North,-999,0.0,-999.0,18,0.00,,,0.09,,2013-05-16 20:45:00,
2013-05-16 17:10:00,-999.0,-99.9,-100.00,North,-999,0.0,-999.0,18,0.00,,,0.09,,2013-05-16 21:10:00,
2013-05-16 17:20:00,79.0,-99.9,-100.00,North,-999,0.0,-999.0,18,0.00,,,0.09,,2013-05-16 21:20:00,
2013-05-16 17:29:00,79.0,32.0,-100.00,North,-999,0.0,-999.0,18,0.00,,,0.09,,2013-05-16 21:29:00,
2013-05-16 17:38:00,79.0,32.0,-100.00,North,-999,0.0,-999.0,18,0.00,,,0.09,,2013-05-16 21:38:00,
2013-05-16 17:45:00,75.0,-99.9,-100.00,North,-999,-999.0,-999.0,19,0.00,,,0.03,,2013-05-16 21:45:00,
2013-05-16 18:08:00,75.0,30.0,-100.00,North,-999,-999.0,-999.0,19,0.00,,,0.03,,2013-05-16 22:08:00,
2013-05-16 18:21:00,75.0,-99.9,-100.00,North,-999,-999.0,-999.0,19,0.00,,,0.03,,2013-05-16 22:21:00,
2013-05-16 18:31:00,75.0,-99.9,-100.00,North,-999,-999.0,-999.0,19,0.00,,,0.03,,2013-05-16 22:31:00,
2013-05-16 18:40:00,75.0,-99.9,-100.00,North,-999,-999.0,-999.0,19,0.00,,,0.03,,2013-05-16 22:40:00,
2013-05-16 18:45:00,74.0,-99.9,-100.00,North,-999,0.0,-999.0,20,0.00,,,0.01,,2013-05-16 22:45:00,
2013-05-16 19:07:00,74.0,30.0,-100.00,North,-999,0.0,-999.0,20,0.00,,,0.01,,2013-05-16 23:07:00,
2013-05-16 19:16:00,74.0,30.0,-100.00,North,-999,0.0,-999.0,20,0.00,,,0.01,,2013-05-16 23:16:00,
2013-05-16 19:24:00,74.0,30.0,-100.00,North,-999,0.0,-999.0,20,0.00,,,0.01,,2013-05-16 23:24:00,
2013-05-16 19:35:00,74.0,-99.9,-100.00,North,-999,0.0,-999.0,20,0.00,,,0.01,,2013-05-16 23:35:00,
2013-05-16 20:03:00,70.0,34.0,-100.00,North,-999,0.0,-999.0,27,0.00,,,0.01,,2013-05-17 00:03:00,
2013-05-16 20:13:00,70.0,34.0,-100.00,North,-999,0.0,-999.0,27,0.00,,,0.01,,2013-05-17 00:13:00,
2013-05-16 20:22:00,70.0,34.0,-100.00,North,-999,0.0,-999.0,27,0.00,,,0.01,,2013-05-17 00:22:00,
2013-05-16 20:33:00,70.0,34.0,-100.00,North,-999,0.0,-999.0,27,0.00,,,0.01,,2013-05-17 00:33:00,
2013-05-16 20:43:00,70.0,34.0,-100.00,North,-999,0.0,-999.0,27,0.00,,,0.01,,2013-05-17 00:43:00,
2013-05-16 21:03:00,66.0,37.0,-100.00,North,-999,0.0,-999.0,35,0.00,,,0.01,,2013-05-17 01:03:00,
2013-05-16 21:12:00,66.0,37.0,-100.00,North,-999,0.0,-999.0,35,0.00,,,0.01,,2013-05-17 01:12:00,
2013-05-16 21:23:00,66.0,37.0,-100.00,North,-999,0.0,-999.0,35,0.00,,,0.01,,2013-05-17 01:23:00,
2013-05-16 21:32:00,66.0,37.0,-100.00,North,-999,0.0,-999.0,35,0.00,,,0.01,,2013-05-17 01:32:00,
2013-05-16 21:43:00,66.0,37.0,-100.00,North,-999,0.0,-999.0,35,0.00,,,0.01,,2013-05-17 01:43:00,
2013-05-16 22:02:00,61.0,39.0,-100.00,North,-999,0.0,-999.0,45,0.00,,,0.01,,2013-05-17 02:02:00,
2013-05-16 22:11:00,61.0,39.0,-100.00,North,-999,0.0,-999.0,45,0.00,,,0.01,,2013-05-17 02:11:00,
2013-05-16 22:22:00,61.0,39.0,-100.00,North,-999,0.0,-999.0,45,0.00,,,0.01,,2013-05-17 02:22:00,
2013-05-16 22:33:00,61.0,39.0,-100.00,North,-999,0.0,-999.0,45,0.00,,,0.01,,2013-05-17 02:33:00,
2013-05-16 22:42:00,61.0,39.0,-100.00,North,-999,0.0,-999.0,45,0.00,,,0.01,,2013-05-17 02:42:00,
2013-05-16 23:02:00,58.0,41.0,-100.00,North,-999,0.0,-999.0,52,0.00,,,-99.99,,2013-05-17 03:02:00,
2013-05-16 23:11:00,58.0,41.0,-100.00,North,-999,0.0,-999.0,52,0.00,,,-99.99,,2013-05-17 03:11:00,
2013-05-16 23:23:00,58.0,41.0,-100.00,North,-999,0.0,-999.0,52,0.00,,,-99.99,,2013-05-17 03:23:00,
2013-05-16 23:34:00,58.0,41.0,-100.00,North,-999,0.0,-999.0,52,0.00,,,-99.99,,2013-05-17 03:34:00,
2013-05-16 23:43:00,58.0,41.0,-100.00,North,-999,0.0,-999.0,52,0.00,,,-99.99,,2013-05-17 03:43:00,